Volver al catálogo

STARLINK-4020

ActivoComunicacionesVLEO
NORAD 52703·PAYLOAD·🇺🇸 United States

Lanzado May 18, 2022 desde Cape Canaveral Space Force Station

Loading…

Próximos Pases (próximas 24 horas)

TLE

ActualizadoSource: CelesTrak SupGP

Época: Sep 14, 2026, 20:29 UTC

1 52703C 22053AZ  26257.85395833 -.00040151  00000+0 -11489-2 0  2579
2 52703  53.1596 352.3921 0001186  76.2918 272.9361 15.35415611    15

Sigue STARLINK-4020 en tiempo real con AllMySat

Download on the App Store